Wind_Speed
25 23 21 19 16 16 14 13 13 15 13 12 11 10 9 8 8 6 6 6 6 7
25 24 22 19 18 16 14 13 15 15 13 12 13 12 11 11 9 8 8 9 10 10
26 25 25 23 22 21 18 19 16 16 16 15 14 13 13 11 11 10 10 10 10 12
28 28 27 27 27 23 20 20 20 18 16 16 14 13 14 13 11 11 11 12 12 13
29 30 30 30 26 25 24 22 15 16 15 12 13 15 16 15 12 13 13 13 13 13
32 32 32 31 27 28 22 21 27 24 18 15 13 16 15 15 15 14 14 14 14 15
33 33 30 27 28 28 32 26 27 21 11 12 13 17 16 18 17 16 15 16 17 16
25 25 26 27 28 29 31 34 33 27 19 13 21 21 19 19 18 18 16 17 17 17
23 23 27 28 29 28 33 37 37 32 20 28 37 32 25 23 19 18 16 17 17 17
23 23 25 28 28 27 32 35 42 38 28 35 32 32 27 25 22 19 19 18 16 16
22 22 24 28 31 29 30 32 29 22 25 29 31 28 27 26 23 22 23 22 18 18
24 25 25 28 30 29 29 30 28 26 23 24 23 25 25 28 24 22 24 19 17 17
19 20 22 25 26 28 30 28 25 23 23 23 25 20 30 27 17 21 22 19 16 17
18 18 18 19 20 23 25 25 23 22 22 25 20 21 18 19 20 22 17 18 15 11
Wind_Direction
214 216 221 219 221 216 218 212 210 211 211 209 209 212 209 213 228 221 228 238 256 273
211 213 216 219 215 217 219 217 208 201 208 214 207 207 205 215 219 229 235 250 257 258
210 210 211 211 211 210 211 206 208 208 195 199 209 204 206 225 228 229 237 245 252 258
210 210 210 213 212 208 203 206 203 201 207 191 203 213 216 229 235 233 240 246 252 258
209 209 212 213 212 204 208 189 203 202 209 209 210 219 223 228 232 235 240 244 247 252
211 211 213 215 209 204 198 197 188 193 193 212 219 227 232 236 238 237 242 244 245 253
213 213 216 215 205 200 202 196 196 185 179 234 229 236 235 237 236 235 235 244 250 255
217 218 220 216 206 195 191 195 192 179 178 231 248 242 240 240 238 235 238 247 254 258
213 212 217 214 205 195 194 194 192 200 206 230 232 238 227 232 238 240 244 254 261 264
213 212 210 210 208 201 200 193 197 201 214 221 231 230 230 236 235 247 250 253 259 265
205 210 203 200 205 210 206 199 200 204 211 222 231 233 227 232 232 239 246 244 241 243
199 202 201 199 200 204 200 199 197 208 220 224 230 232 233 236 233 238 244 247 251 257
196 201 203 204 202 200 194 193 192 208 223 218 216 232 259 235 238 249 250 262 255 261
191 197 199 196 196 191 191 197 203 212 210 209 206 219 230 229 242 249 262 269 252 237
Height
801 805 808 811 812 815 817 819 822 825 827 829 831 833 835 838 839 840 841 841 840 838
795 799 802 806 809 812 814 816 818 820 825 828 828 830 833 833 835 837 839 840 840 838
788 792 796 800 802 803 807 809 815 819 817 822 826 827 830 832 832 834 835 835 836 837
780 784 789 791 794 799 802 806 808 812 819 816 822 827 828 828 829 830 832 833 834 835
772 776 780 784 789 792 796 795 810 813 817 820 819 822 824 825 825 827 828 830 831 831
763 768 771 776 782 787 791 796 795 798 806 816 817 820 822 822 822 823 824 825 826 826
754 759 766 772 775 778 782 787 791 800 798 811 813 819 816 817 817 818 818 820 821 821
751 757 762 765 767 770 774 779 784 786 785 801 810 811 811 814 814 814 813 815 816 817
743 749 753 756 759 765 767 769 775 773 774 786 793 795 801 806 809 810 809 811 811 812
735 740 744 749 754 760 760 762 763 766 767 778 787 788 793 800 803 804 803 804 805 805
728 734 738 740 745 751 754 757 761 767 770 775 779 784 784 791 794 795 797 797 794 794
719 724 729 732 737 741 747 753 756 762 767 771 777 782 782 785 787 789 791 791 792 792
716 721 725 728 734 738 741 745 750 757 763 766 771 775 776 778 783 786 785 786 786 784
710 716 720 727 733 739 742 747 751 754 758 760 762 766 770 774 777 781 782 781 781 780